Location: Enborne
(51.3833°N, 1.3667°W)
Time: 23:17:59
(UTC+00:00)

NOSS 2-2 (C) - Pass Details

Date: 17 January 2021
Orbit: 463 x 1745 km, 63.3° (Epoch: 03 March)

Event Time Altitude Azimuth Distance (km) Brightness Sun altitude
Rises 18:16:48 0° 294° (WNW) 2,628 7.7 -16.1°
Reaches altitude 10° 18:19:21 10° 315° (NW) 1,853 6.4 -16.5°
Maximum altitude 18:22:16 18° 0° (N) 1,536 5.4 -16.9°
Enters shadow 18:23:51 16° 26° (NNE) 1,749 5.5 -17.2°
